SCP
0 0 0 -0 -0 -0 -0 -0 -0 -0 -0 -0 -0 -0 -0 -0 -0 -0 -0 -0 -0 0 0 0 0 0 0 0 0 0 0 0 0 0 0 0 0 0 0 0 0 0 0 0 0 0 0
0 0 0 -0 -0 -0 -0 -0 -0 -0 -0 -0 -0 -0 -0 -0 -0 -0 -0 -0 -0 0 0 0 0 0 0 0 0 0 0 0 0 0 0 0 0 0 0 0 0 0 0 0 0 0 0
0 0 0 0 -0 -0 -0 -0 -0 -0 -0 -0 -0 -0 -0 -0 -0 -0 -0 -0 -0 0 0 0 0 0 0 0 0 0 0 0 0 0 0 0 0 0 0 0 0 0 0 0 0 0 0
0 0 0 0 -0 -0 -0 -0 -0 -0 -0 -0 -0 -0 -0 -0 -0 -0 -0 -0 -0 -0 0 0 0 0 0 -0 -0 -0 0 0 0 0 0 0 0 0 0 0 0 0 0 0 0 0 0
0 0 0 0 -0 -0 -0 -0 -0 -0 -0 -0 -0 -0 -0 -0 -0 -0 -0 -0 -0 -0 -0 -0 0 0 0 -0 -0 -0 0 0 0 0 0 0 0 0 0 0 0 0 0 0 0 0 0
0 0 0 0 -0 -0 -0 -0 -0 -0 -0 -0 -0 -0 -0 -0 -0 -0 -0 -0 -0 -0 -0 -0 0 0 0 0 -0 -0 -0 -0 0 0 0 0 0 0 0 0 0 0 0 0 0 0 0
0 0 0 -0 -0 -0 -0 -0 -0 -0 -0 -0 -0 -0 -0 -0 -0 -0 -0 -0 0 0 0 -0 0 0 0 -0 -0 -0 -0 0 0 0 0 0 0 0 0 0 0 0 0 0 0 0 -0
0 0 0 0 -0 -0 -0 -0 -0 -0 -0 -0 -0 -0 -0 -0 -0 -0 -0 0 0 0 -0 0 -0 -0 -0 -0 -0 0 -0 0 0 0 0 0 0 0 -0 0 0 0 0 0 -0 -0 -0
0 0 0 0 0 -0 -0 -0 -0 -0 -0 -0 -0 -0 -0 -0 -0 -0 0 -0 0 -0 0 0 -0 0 -0 0 -0 0 -0 0 0 0 0 0 0 0 0 0 0 0 0 0 0 -0 -0
0 0 -0 0 0 -0 -0 -0 -0 -0 -0 -0 -0 -0 -0 -0 0 0 -0 -0 -0 0 0 0 -0 -0 -0 -0 0 -0 0 0 0 0 0 0 0 0 0 0 0 0 0 0 0 0 0
0 0 -0 0 -0 -0 -0 -0 -0 -0 -0 -0 -0 -0 -0 0 0 0 0 -0 -0 0 0 -0 -0 -0 -0 -0 0 -0 -0 0 0 0 0 0 0 0 0 0 0 0 0 0 0 0 0
0 -0 -0 0 -0 -0 -0 -0 -0 -0 -0 -0 -0 -0 -0 0 0 0 0 -0 -0 0 0 0 0 0 0 0 0 0 -0 0 0 0 0 0 0 0 0 0 0 0 0 0 0 0 0
0 0 -0 0 -0 -0 -0 -0 -0 -0 -0 -0 -0 -0 -0 0 0 -0 -0 -0 0 0 0 0 0 0 0 0 0 0 0 0 0 0 0 0 0 0 0 0 0 0 0 0 0 0 0
0 0 -0 -0 -0 -0 -0 -0 -0 -0 -0 -0 -0 -0 0 0 0 -0 -0 0 0 0 0 0 0 0 0 0 0 0 0 0 0 0 0 0 0 0 0 0 0 0 0 0 0 0 0
0 0 -0 -0 -0 -0 -0 -0 -0 -0 -0 -0 -0 -0 0 0 0 0 0 0 0 0 0 0 0 0 0 0 0 0 0 0 0 0 0 0 0 0 0 0 0 0 0 0 0 0 0
-0 0 0 0 -0 -0 -0 -0 -0 -0 -0 -0 0 -0 0 0 0 -0 0 0 0 -0 0 0 0 0 0 0 0 0 0 0 0 0 0 0 0 0 0 0 0 0 0 0 0 0 0
0 0 -0 -0 0 -0 -0 -0 -0 -0 -0 -0 0 0 0 0 0 0 0 0 -0 -0 -0 0 0 0 0 0 0 0 0 0 0 0 0 0 0 0 0 0 0 0 0 0 0 0 0
0 0 0 0 0 -0 -0 -0 -0 -0 -0 0 0 0 0 0 0 0 0 0 0 0 0 0 0 0 0 0 0 0 0 0 0 0 0 0 0 0 0 0 0 0 0 0 0 0 0
0 0 0 0 0 0 -0 -0 -0 -0 -0 0 0 0 0 0 0 0 0 0 0 0 0 0 0 0 0 0 0 0 0 0 0 0 0 0 0 0 0 0 0 0 0 0 0 0 0
0 0 0 0 0 -0 -0 -0 -0 -0 -0 0 0 0 0 0 0 0 0 0 0 0 0 0 0 0 0 0 0 0 0 0 0 0 0 0 0 0 0 0 0 0 0 0 0 0 0
0 0 0 0 0 -0 -0 -0 -0 -0 -0 0 0 0 0 0 0 0 0 0 0 0 0 0 0 0 0 0 0 0 0 0 0 0 0 0 0 0 0 0 0 0 0 0 0 0 0
0 0 0 0 -0 -0 -0 -0 -0 -0 -0 0 0 0 0 0 0 0 0 0 0 0 0 0 0 0 0 0 0 0 0 0 0 0 0 0 0 0 0 0 0 0 0 0 0 0 0
0 0 0 0 -0 -0 -0 -0 -0 -0 0 0 0 0 0 0 0 0 0 0 0 0 0 0 0 0 0 0 0 0 0 0 0 0 0 0 0 0 0 0 0 0 0 0 0 0 0
0 0 0 0 -0 0 -0 -0 -0 -0 0 0 0 0 0 0 0 0 0 0 0 0 0 0 0 0 0 0 0 0 0 0 0 0 0 0 0 0 0 0 0 0 0 0 0 0 0
0 0 0 0 0 0 0 0 0 0 0 0 0 0 0 0 0 0 0 0 0 0 0 0 0 0 0 0 0 0 0 0 0 0 0 -0 0 0 0 0 0 0 0 -0 0 0 0
0 0 0 0 0 0 0 0 0 0 0 0 0 0 0 0 0 0 0 0 0 0 0 0 0 0 0 0 0 0 0 0 0 0 0 0 0 0 0 0 0 0 0 0 -0 0 0
0 0 0 0 0 0 0 0 0 0 0 0 0 0 0 0 0 0 0 0 0 0 0 0 0 0 0 0 0 0 0 0 0 0 0 0 0 0 0 0 0 0 0 -0 -0 -0 -0
0 0 0 0 0 0 0 0 0 0 0 0 0 0 0 0 0 0 0 0 0 0 0 0 0 0 0 0 0 0 0 0 0 0 0 0 0 0 0 0 0 0 -0 -0 -0 -0 -0
0 0 0 0 0 0 0 0 0 0 0 0 0 0 0 0 0 0 0 0 0 0 0 0 0 0 0 0 0 0 0 0 0 0 0 0 0 0 0 0 0 -0 0 0 0 0 0
Wind_Speed_500mb
67 67 65 62 58 55 54 53 50 45 37 31 29 33 38 33 27 22 14 7 8 7 12 19 21 14 9 5 6 28 17 12 12 24 30 19 9 6 1 6 16 5 9 13 14 16 20
68 67 66 64 62 58 54 53 51 48 42 32 27 28 32 31 27 23 14 7 9 13 21 26 20 8 6 5 16 14 18 19 16 19 18 20 9 12 4 8 2 12 8 17 17 32 23
67 67 66 64 62 60 58 54 52 49 45 35 25 27 29 27 25 23 15 11 18 26 30 22 12 4 8 9 4 9 12 9 11 7 11 16 22 10 14 14 15 14 13 17 27 27 13
66 66 66 64 62 61 58 56 53 49 46 40 26 23 25 24 20 19 19 23 30 28 21 13 11 10 4 6 6 6 9 7 10 5 10 17 18 10 6 13 15 11 10 9 16 15 12
69 67 65 63 62 60 58 56 55 51 46 41 30 17 21 18 16 18 23 25 24 17 10 9 9 10 5 12 7 1 11 14 7 6 14 23 15 8 10 7 11 12 3 5 17 12 3
71 70 67 65 63 62 59 56 54 52 47 42 31 15 13 10 12 18 16 16 15 6 14 13 8 6 2 8 7 9 3 10 8 9 16 8 7 5 8 8 5 5 4 7 10 12 5
71 72 70 67 64 62 60 58 56 52 49 42 33 16 6 3 10 17 10 6 10 2 22 11 12 6 9 6 1 1 12 15 17 16 5 7 6 10 13 11 12 6 5 8 10 13 12
71 72 72 69 66 63 61 60 58 55 51 43 32 19 2 6 9 7 7 11 16 13 13 13 9 5 8 2 1 5 24 10 8 7 5 10 11 18 15 6 3 5 6 11 8 12 12
69 71 71 70 67 64 62 60 59 58 53 46 32 15 4 12 10 2 7 10 12 12 3 14 18 5 4 7 1 2 21 11 4 6 12 9 12 2 8 13 13 10 7 8 11 13 13
68 69 70 69 69 66 64 61 59 58 54 46 31 11 10 9 7 16 15 16 10 7 8 4 7 8 11 4 3 5 7 4 8 6 13 6 13 4 7 9 8 5 7 10 13 12 4
68 68 69 70 69 67 65 64 61 59 56 44 25 7 9 13 11 18 18 20 7 5 6 10 6 7 8 10 14 10 7 7 6 6 9 13 9 8 6 8 6 11 9 9 9 10 5
70 71 70 69 69 69 68 64 61 61 56 38 21 9 15 10 13 16 20 7 3 9 4 5 8 5 3 13 8 10 15 10 6 3 7 14 20 5 7 4 7 2 9 13 9 8 2
69 72 71 70 68 70 70 66 63 60 56 29 18 12 7 4 13 17 11 3 9 7 1 1 4 3 3 5 9 5 1 3 4 9 11 14 11 8 13 5 10 17 13 8 10 8 10
69 72 71 71 69 69 71 68 64 59 54 24 15 16 8 11 20 13 8 8 15 5 9 8 8 13 6 6 1 3 4 5 8 8 5 5 8 10 22 5 10 5 12 9 7 6 10
69 72 72 72 70 68 70 71 65 59 51 24 5 9 14 20 26 10 7 10 3 6 7 13 14 13 14 14 9 12 10 4 6 5 9 5 10 16 6 11 8 4 3 10 6 4 4
63 70 72 72 70 68 67 69 67 58 51 21 8 6 19 19 18 11 9 3 6 6 6 10 11 11 11 11 9 8 8 10 8 5 10 6 8 10 11 8 8 10 4 7 6 4 9
60 67 71 71 70 67 65 64 66 60 53 26 9 5 18 19 12 10 6 2 5 13 15 7 8 8 9 7 8 11 6 8 9 3 7 4 9 11 7 7 10 8 7 3 3 9 11
56 65 68 71 69 66 62 59 58 59 56 36 13 6 22 10 12 7 4 12 10 5 17 12 7 11 9 11 8 7 7 3 3 4 5 4 6 7 16 33 20 15 17 9 8 14 7
53 61 64 68 68 65 61 57 50 48 54 45 14 12 34 10 7 7 14 9 9 8 5 5 10 7 1 4 6 4 5 9 5 4 4 7 2 8 18 12 9 12 3 6 6 2 12
50 56 60 65 65 63 60 55 47 38 42 28 11 9 13 18 14 4 11 9 11 21 28 16 9 15 12 11 7 10 7 8 33 21 23 11 10 16 26 21 8 21 22 26 9 5 16
51 58 59 61 61 60 57 54 48 40 34 20 15 8 10 8 11 17 6 6 8 11 8 17 9 14 5 4 10 6 9 13 24 29 4 4 10 12 29 31 29 36 36 35 39 37 16
52 55 57 58 57 55 53 51 49 42 29 25 10 13 16 15 20 14 16 11 15 10 7 10 5 6 3 4 5 9 8 5 11 10 4 2 18 9 44 25 30 41 40 46 41 39 34
48 50 53 54 53 49 46 45 45 42 36 20 19 10 8 12 15 7 8 10 9 12 10 25 9 5 7 4 24 36 42 40 39 26 31 7 5 5 44 23 25 29 27 38 40 36 29
44 45 49 51 49 44 39 38 36 36 36 25 22 13 8 8 8 6 15 15 14 18 4 18 30 8 8 30 36 29 33 43 36 29 19 8 9 5 17 20 17 14 38 37 31 26 16
43 44 44 46 44 41 36 32 30 27 24 15 15 11 7 6 10 16 24 13 16 25 17 7 28 13 25 13 9 11 10 14 11 6 10 6 7 3 6 9 24 23 2 7 18 35 8
45 42 41 42 38 35 33 27 26 23 18 11 12 11 3 6 6 11 10 12 4 7 15 9 24 27 19 7 7 3 5 7 7 14 3 20 6 7 6 4 8 6 14 45 22 20 5
42 40 38 38 35 31 29 28 22 20 18 10 3 6 4 9 12 9 4 4 4 6 3 9 16 21 21 5 2 4 6 8 7 10 12 12 9 2 8 9 15 2 45 35 7 18 53
41 38 36 34 31 29 25 24 23 18 15 8 5 9 12 11 36 12 13 14 22 15 7 9 11 12 9 10 5 5 3 5 7 7 9 5 4 4 7 6 13 38 55 4 18 39 49
40 35 33 31 29 26 24 22 21 20 17 14 8 14 26 25 28 52 47 41 48 40 20 7 4 4 5 6 2 2 5 5 6 6 6 6 9 8 10 11 46 64 45 53 44 43 69
Wind_Direction_500mb
25 23 22 21 21 20 17 16 16 17 15 10 5 7 8 16 23 14 14 70 90 108 126 136 140 126 47 53 41 120 101 57 22 8 2 317 21 13 32 290 324 198 318 284 286 310 310
23 21 20 20 18 17 17 15 14 13 15 13 8 2 8 11 15 18 23 91 88 107 120 127 130 105 67 64 83 89 51 52 19 11 17 47 18 358 313 300 61 310 304 321 299 293 281
20 18 17 16 16 15 13 13 13 11 11 13 8 5 5 12 17 27 52 77 96 110 118 122 115 72 94 102 82 51 4 5 354 316 6 8 346 311 333 321 321 313 353 342 307 292 261
17 16 15 14 13 13 12 9 10 10 8 9 11 8 6 13 27 41 72 97 107 113 116 102 58 23 45 198 167 312 317 292 249 305 324 324 339 325 242 311 350 11 42 11 289 321 329
15 14 15 14 12 11 10 9 7 7 6 6 7 11 9 22 45 79 104 110 115 108 83 15 2 14 349 131 148 89 4 352 331 204 274 290 297 328 343 58 8 4 224 238 313 325 126
16 15 15 14 12 9 8 8 6 5 4 1 3 1 18 32 76 94 110 117 119 73 342 332 313 332 152 151 31 103 49 338 325 319 312 276 224 24 5 81 212 249 330 300 289 279 12
14 14 12 11 10 8 6 6 5 3 2 360 357 358 13 74 144 109 76 49 10 293 331 280 306 291 85 21 322 130 4 330 304 267 225 302 93 227 231 192 197 179 213 256 268 321 359
12 11 10 9 8 7 6 4 4 1 360 357 355 351 358 149 161 187 43 27 350 313 307 281 254 252 6 9 264 117 3 26 5 244 4 7 230 240 207 74 35 5 10 331 294 344 21
10 9 8 6 6 7 6 5 2 0 359 356 355 356 109 138 142 329 329 1 11 332 310 302 219 204 269 260 277 78 353 344 265 310 310 181 247 185 77 41 50 11 88 337 293 335 350
10 8 8 6 4 5 5 5 2 360 359 356 356 10 155 154 82 46 39 347 320 248 62 265 216 215 223 213 297 234 3 36 344 336 332 277 332 53 81 82 96 20 309 322 317 6 268
7 8 7 6 4 3 4 5 3 360 1 358 5 45 125 138 76 35 25 340 238 260 70 190 180 210 197 185 163 230 218 167 233 281 64 264 305 348 25 157 128 233 296 289 260 239 89
9 8 8 6 4 2 3 4 3 0 4 4 12 112 116 90 49 17 339 319 140 49 126 165 160 202 150 228 206 165 201 230 319 334 309 245 274 249 152 197 87 283 12 338 12 113 123
4 6 7 5 5 2 1 2 4 2 5 16 38 88 125 58 341 339 351 350 53 90 5 34 252 33 176 133 170 166 332 62 104 29 0 330 2 51 36 51 3 58 47 343 360 8 212
5 6 6 5 5 4 359 360 3 5 3 20 77 83 80 20 13 22 18 56 64 30 11 356 322 298 211 172 105 278 73 128 27 76 87 10 325 12 335 228 199 215 147 157 259 233 253
2 3 5 4 4 5 1 357 1 6 3 19 120 57 26 22 14 3 1 55 153 39 347 347 334 55 22 8 20 34 358 129 133 141 120 55 275 315 51 338 132 265 272 187 182 269 8
359 1 3 2 3 5 3 358 356 5 4 8 20 24 20 3 9 347 65 307 68 57 5 20 35 40 33 350 39 28 339 19 127 97 111 194 297 267 311 343 269 149 217 356 359 275 265
357 359 360 1 1 3 4 360 355 359 9 0 31 64 17 6 358 30 90 256 98 89 67 68 24 351 2 18 18 345 326 355 48 95 109 151 154 281 7 245 216 329 326 318 213 157 200
353 356 358 359 359 0 4 2 359 355 7 24 37 48 13 322 42 29 10 295 327 91 51 37 53 42 29 356 347 347 326 225 11 349 292 265 174 265 240 267 270 246 257 155 132 280 230
349 353 355 357 357 358 1 2 4 358 3 5 13 347 39 76 69 343 317 325 9 37 61 60 16 55 352 295 4 281 270 332 100 298 230 202 297 335 336 349 22 87 327 177 210 172 209
343 349 353 354 355 356 357 360 3 359 357 8 15 10 360 46 59 57 7 313 342 13 50 26 34 29 21 352 20 306 308 317 351 350 324 202 185 192 256 240 225 280 263 281 224 179 269
340 343 347 351 353 354 355 357 2 7 4 14 29 38 13 324 336 343 330 286 28 14 47 33 18 25 68 339 327 326 357 330 332 319 57 166 233 235 249 265 267 264 259 251 249 257 223
335 337 342 346 350 352 352 355 360 10 16 36 48 9 347 305 315 333 2 354 5 330 25 8 55 298 12 89 155 289 319 238 226 296 282 332 276 295 280 279 278 277 263 258 253 259 260
323 328 336 341 345 349 351 354 359 8 20 46 42 26 337 307 345 34 350 336 0 360 328 9 10 12 37 319 310 291 279 260 251 263 273 210 274 7 283 308 287 278 253 255 259 262 255
312 319 328 337 340 344 350 353 1 8 17 30 27 26 357 289 359 28 315 344 3 6 266 67 27 51 314 327 312 300 281 275 270 272 216 220 241 190 283 302 259 295 21 352 338 308 281
308 313 324 332 335 339 343 351 357 4 11 19 23 39 359 290 300 316 354 8 358 356 7 349 22 25 344 326 5 353 333 359 331 95 76 155 95 289 280 303 273 272 286 336 299 291 275
299 306 319 327 330 333 334 345 350 355 6 3 9 13 333 298 219 330 325 356 330 326 349 324 356 357 353 63 53 343 280 258 286 329 82 24 104 159 15 228 260 258 49 347 351 267 127
293 300 313 319 322 325 328 332 346 350 358 20 65 334 325 271 256 334 296 246 323 15 292 309 349 354 15 50 105 214 262 301 311 323 317 314 315 263 266 264 274 257 347 311 321 295 326
283 293 304 311 315 317 319 323 332 345 348 339 277 322 329 271 290 276 210 234 280 284 174 303 360 2 28 38 64 317 333 308 309 272 263 253 295 305 311 283 295 344 337 40 291 310 311
275 285 295 301 305 309 314 319 322 330 335 329 322 278 264 270 270 294 285 275 265 259 241 237 194 280 199 83 26 339 304 308 237 274 286 314 171 237 211 243 291 301 296 304 300 309 305
Wind_Speed_850mb
67 67 65 62 58 55 54 53 50 45 37 31 29 33 38 33 27 22 14 7 8 7 12 19 21 14 9 5 6 28 17 12 12 24 30 19 9 6 1 6 16 5 9 13 14 16 20
68 67 66 64 62 58 54 53 51 48 42 32 27 28 32 31 27 23 14 7 9 13 21 26 20 8 6 5 16 14 18 19 16 19 18 20 9 12 4 8 2 12 8 17 17 32 23
67 67 66 64 62 60 58 54 52 49 45 35 25 27 29 27 25 23 15 11 18 26 30 22 12 4 8 9 4 9 12 9 11 7 11 16 22 10 14 14 15 14 13 17 27 27 13
66 66 66 64 62 61 58 56 53 49 46 40 26 23 25 24 20 19 19 23 30 28 21 13 11 10 4 6 6 6 9 7 10 5 10 17 18 10 6 13 15 11 10 9 16 15 12
69 67 65 63 62 60 58 56 55 51 46 41 30 17 21 18 16 18 23 25 24 17 10 9 9 10 5 12 7 1 11 14 7 6 14 23 15 8 10 7 11 12 3 5 17 12 3
71 70 67 65 63 62 59 56 54 52 47 42 31 15 13 10 12 18 16 16 15 6 14 13 8 6 2 8 7 9 3 10 8 9 16 8 7 5 8 8 5 5 4 7 10 12 5
71 72 70 67 64 62 60 58 56 52 49 42 33 16 6 3 10 17 10 6 10 2 22 11 12 6 9 6 1 1 12 15 17 16 5 7 6 10 13 11 12 6 5 8 10 13 12
71 72 72 69 66 63 61 60 58 55 51 43 32 19 2 6 9 7 7 11 16 13 13 13 9 5 8 2 1 5 24 10 8 7 5 10 11 18 15 6 3 5 6 11 8 12 12
69 71 71 70 67 64 62 60 59 58 53 46 32 15 4 12 10 2 7 10 12 12 3 14 18 5 4 7 1 2 21 11 4 6 12 9 12 2 8 13 13 10 7 8 11 13 13
68 69 70 69 69 66 64 61 59 58 54 46 31 11 10 9 7 16 15 16 10 7 8 4 7 8 11 4 3 5 7 4 8 6 13 6 13 4 7 9 8 5 7 10 13 12 4
68 68 69 70 69 67 65 64 61 59 56 44 25 7 9 13 11 18 18 20 7 5 6 10 6 7 8 10 14 10 7 7 6 6 9 13 9 8 6 8 6 11 9 9 9 10 5
70 71 70 69 69 69 68 64 61 61 56 38 21 9 15 10 13 16 20 7 3 9 4 5 8 5 3 13 8 10 15 10 6 3 7 14 20 5 7 4 7 2 9 13 9 8 2
69 72 71 70 68 70 70 66 63 60 56 29 18 12 7 4 13 17 11 3 9 7 1 1 4 3 3 5 9 5 1 3 4 9 11 14 11 8 13 5 10 17 13 8 10 8 10
69 72 71 71 69 69 71 68 64 59 54 24 15 16 8 11 20 13 8 8 15 5 9 8 8 13 6 6 1 3 4 5 8 8 5 5 8 10 22 5 10 5 12 9 7 6 10
69 72 72 72 70 68 70 71 65 59 51 24 5 9 14 20 26 10 7 10 3 6 7 13 14 13 14 14 9 12 10 4 6 5 9 5 10 16 6 11 8 4 3 10 6 4 4
63 70 72 72 70 68 67 69 67 58 51 21 8 6 19 19 18 11 9 3 6 6 6 10 11 11 11 11 9 8 8 10 8 5 10 6 8 10 11 8 8 10 4 7 6 4 9
60 67 71 71 70 67 65 64 66 60 53 26 9 5 18 19 12 10 6 2 5 13 15 7 8 8 9 7 8 11 6 8 9 3 7 4 9 11 7 7 10 8 7 3 3 9 11
56 65 68 71 69 66 62 59 58 59 56 36 13 6 22 10 12 7 4 12 10 5 17 12 7 11 9 11 8 7 7 3 3 4 5 4 6 7 16 33 20 15 17 9 8 14 7
53 61 64 68 68 65 61 57 50 48 54 45 14 12 34 10 7 7 14 9 9 8 5 5 10 7 1 4 6 4 5 9 5 4 4 7 2 8 18 12 9 12 3 6 6 2 12
50 56 60 65 65 63 60 55 47 38 42 28 11 9 13 18 14 4 11 9 11 21 28 16 9 15 12 11 7 10 7 8 33 21 23 11 10 16 26 21 8 21 22 26 9 5 16
51 58 59 61 61 60 57 54 48 40 34 20 15 8 10 8 11 17 6 6 8 11 8 17 9 14 5 4 10 6 9 13 24 29 4 4 10 12 29 31 29 36 36 35 39 37 16
52 55 57 58 57 55 53 51 49 42 29 25 10 13 16 15 20 14 16 11 15 10 7 10 5 6 3 4 5 9 8 5 11 10 4 2 18 9 44 25 30 41 40 46 41 39 34
48 50 53 54 53 49 46 45 45 42 36 20 19 10 8 12 15 7 8 10 9 12 10 25 9 5 7 4 24 36 42 40 39 26 31 7 5 5 44 23 25 29 27 38 40 36 29
44 45 49 51 49 44 39 38 36 36 36 25 22 13 8 8 8 6 15 15 14 18 4 18 30 8 8 30 36 29 33 43 36 29 19 8 9 5 17 20 17 14 38 37 31 26 16
43 44 44 46 44 41 36 32 30 27 24 15 15 11 7 6 10 16 24 13 16 25 17 7 28 13 25 13 9 11 10 14 11 6 10 6 7 3 6 9 24 23 2 7 18 35 8
45 42 41 42 38 35 33 27 26 23 18 11 12 11 3 6 6 11 10 12 4 7 15 9 24 27 19 7 7 3 5 7 7 14 3 20 6 7 6 4 8 6 14 45 22 20 5
42 40 38 38 35 31 29 28 22 20 18 10 3 6 4 9 12 9 4 4 4 6 3 9 16 21 21 5 2 4 6 8 7 10 12 12 9 2 8 9 15 2 45 35 7 18 53
41 38 36 34 31 29 25 24 23 18 15 8 5 9 12 11 36 12 13 14 22 15 7 9 11 12 9 10 5 5 3 5 7 7 9 5 4 4 7 6 13 38 55 4 18 39 49
40 35 33 31 29 26 24 22 21 20 17 14 8 14 26 25 28 52 47 41 48 40 20 7 4 4 5 6 2 2 5 5 6 6 6 6 9 8 10 11 46 64 45 53 44 43 69
Wind_Direction_850mb
25 23 22 21 21 20 17 16 16 17 15 10 5 7 8 16 23 14 14 70 90 108 126 136 140 126 47 53 41 120 101 57 22 8 2 317 21 13 32 290 324 198 318 284 286 310 310
23 21 20 20 18 17 17 15 14 13 15 13 8 2 8 11 15 18 23 91 88 107 120 127 130 105 67 64 83 89 51 52 19 11 17 47 18 358 313 300 61 310 304 321 299 293 281
20 18 17 16 16 15 13 13 13 11 11 13 8 5 5 12 17 27 52 77 96 110 118 122 115 72 94 102 82 51 4 5 354 316 6 8 346 311 333 321 321 313 353 342 307 292 261
17 16 15 14 13 13 12 9 10 10 8 9 11 8 6 13 27 41 72 97 107 113 116 102 58 23 45 198 167 312 317 292 249 305 324 324 339 325 242 311 350 11 42 11 289 321 329
15 14 15 14 12 11 10 9 7 7 6 6 7 11 9 22 45 79 104 110 115 108 83 15 2 14 349 131 148 89 4 352 331 204 274 290 297 328 343 58 8 4 224 238 313 325 126
16 15 15 14 12 9 8 8 6 5 4 1 3 1 18 32 76 94 110 117 119 73 342 332 313 332 152 151 31 103 49 338 325 319 312 276 224 24 5 81 212 249 330 300 289 279 12
14 14 12 11 10 8 6 6 5 3 2 360 357 358 13 74 144 109 76 49 10 293 331 280 306 291 85 21 322 130 4 330 304 267 225 302 93 227 231 192 197 179 213 256 268 321 359
12 11 10 9 8 7 6 4 4 1 360 357 355 351 358 149 161 187 43 27 350 313 307 281 254 252 6 9 264 117 3 26 5 244 4 7 230 240 207 74 35 5 10 331 294 344 21
10 9 8 6 6 7 6 5 2 0 359 356 355 356 109 138 142 329 329 1 11 332 310 302 219 204 269 260 277 78 353 344 265 310 310 181 247 185 77 41 50 11 88 337 293 335 350
10 8 8 6 4 5 5 5 2 360 359 356 356 10 155 154 82 46 39 347 320 248 62 265 216 215 223 213 297 234 3 36 344 336 332 277 332 53 81 82 96 20 309 322 317 6 268
7 8 7 6 4 3 4 5 3 360 1 358 5 45 125 138 76 35 25 340 238 260 70 190 180 210 197 185 163 230 218 167 233 281 64 264 305 348 25 157 128 233 296 289 260 239 89
9 8 8 6 4 2 3 4 3 0 4 4 12 112 116 90 49 17 339 319 140 49 126 165 160 202 150 228 206 165 201 230 319 334 309 245 274 249 152 197 87 283 12 338 12 113 123
4 6 7 5 5 2 1 2 4 2 5 16 38 88 125 58 341 339 351 350 53 90 5 34 252 33 176 133 170 166 332 62 104 29 0 330 2 51 36 51 3 58 47 343 360 8 212
5 6 6 5 5 4 359 360 3 5 3 20 77 83 80 20 13 22 18 56 64 30 11 356 322 298 211 172 105 278 73 128 27 76 87 10 325 12 335 228 199 215 147 157 259 233 253
2 3 5 4 4 5 1 357 1 6 3 19 120 57 26 22 14 3 1 55 153 39 347 347 334 55 22 8 20 34 358 129 133 141 120 55 275 315 51 338 132 265 272 187 182 269 8
359 1 3 2 3 5 3 358 356 5 4 8 20 24 20 3 9 347 65 307 68 57 5 20 35 40 33 350 39 28 339 19 127 97 111 194 297 267 311 343 269 149 217 356 359 275 265
357 359 360 1 1 3 4 360 355 359 9 0 31 64 17 6 358 30 90 256 98 89 67 68 24 351 2 18 18 345 326 355 48 95 109 151 154 281 7 245 216 329 326 318 213 157 200
353 356 358 359 359 0 4 2 359 355 7 24 37 48 13 322 42 29 10 295 327 91 51 37 53 42 29 356 347 347 326 225 11 349 292 265 174 265 240 267 270 246 257 155 132 280 230
349 353 355 357 357 358 1 2 4 358 3 5 13 347 39 76 69 343 317 325 9 37 61 60 16 55 352 295 4 281 270 332 100 298 230 202 297 335 336 349 22 87 327 177 210 172 209
343 349 353 354 355 356 357 360 3 359 357 8 15 10 360 46 59 57 7 313 342 13 50 26 34 29 21 352 20 306 308 317 351 350 324 202 185 192 256 240 225 280 263 281 224 179 269
340 343 347 351 353 354 355 357 2 7 4 14 29 38 13 324 336 343 330 286 28 14 47 33 18 25 68 339 327 326 357 330 332 319 57 166 233 235 249 265 267 264 259 251 249 257 223
335 337 342 346 350 352 352 355 360 10 16 36 48 9 347 305 315 333 2 354 5 330 25 8 55 298 12 89 155 289 319 238 226 296 282 332 276 295 280 279 278 277 263 258 253 259 260
323 328 336 341 345 349 351 354 359 8 20 46 42 26 337 307 345 34 350 336 0 360 328 9 10 12 37 319 310 291 279 260 251 263 273 210 274 7 283 308 287 278 253 255 259 262 255
312 319 328 337 340 344 350 353 1 8 17 30 27 26 357 289 359 28 315 344 3 6 266 67 27 51 314 327 312 300 281 275 270 272 216 220 241 190 283 302 259 295 21 352 338 308 281
308 313 324 332 335 339 343 351 357 4 11 19 23 39 359 290 300 316 354 8 358 356 7 349 22 25 344 326 5 353 333 359 331 95 76 155 95 289 280 303 273 272 286 336 299 291 275
299 306 319 327 330 333 334 345 350 355 6 3 9 13 333 298 219 330 325 356 330 326 349 324 356 357 353 63 53 343 280 258 286 329 82 24 104 159 15 228 260 258 49 347 351 267 127
293 300 313 319 322 325 328 332 346 350 358 20 65 334 325 271 256 334 296 246 323 15 292 309 349 354 15 50 105 214 262 301 311 323 317 314 315 263 266 264 274 257 347 311 321 295 326
283 293 304 311 315 317 319 323 332 345 348 339 277 322 329 271 290 276 210 234 280 284 174 303 360 2 28 38 64 317 333 308 309 272 263 253 295 305 311 283 295 344 337 40 291 310 311
275 285 295 301 305 309 314 319 322 330 335 329 322 278 264 270 270 294 285 275 265 259 241 237 194 280 199 83 26 339 304 308 237 274 286 314 171 237 211 243 291 301 296 304 300 309 305